Tracking 19908 objects as of 19-Oct-2019
HD Live streaming from Space Station
objects crossing your sky now

IUS R/B(1)

Track IUS R/B(1) now!


NORAD ID: 15544
Int'l Code: 1985-010C
Perigee: 316.8 km
Apogee: 30,357.2 km
Inclination: 27.8 °
Period: 530.5 minutes
Semi major axis: 21708 km
RCS: Unknown
Launch date: January 24, 1985
Source: United States (US)
Launch site: AIR FORCE EASTERN TEST RANGE (AFETR)

Note: This is a ROCKET BODY
aabbcc
Your satellite tracking list
Your tracking list is empty




NASA's NSSDC Master Catalog

Two Line Element Set (TLE):
1 15544U 85010C   19291.42088481  .00000219  00000-0  15668-3 0  9991
2 15544  27.7987  78.1256 6919184 274.3578  16.1617  2.71439353  4861
Source of the keplerian elements: AFSPC